{"data":{"norad_id":58908,"intl_designator":"2024-023D","name":"GEESAT-2 04","alt_names":[],"object_type":"PAYLOAD","status":"ACTIVE","operator":null,"country":"PRC","launch_date":"2024-02-02","launch_site_code":"XICLF","launch_vehicle":null,"mission":null,"orbit_class":"UNKNOWN","rcs_meters":null,"size_class":null,"mass_kg":null,"dimensions":null,"purposes":[],"wikipedia_slug":null,"has_3d_model":false,"image_url":null,"decayed_at":null,"tle_current":{"epoch":"2026-09-22T22:07:08.681664Z","epoch_age_seconds":43159,"freshness":"FRESH","line1":"1 58908U 24023D   26265.92162826  .00001256  00000+0  12826-3 0  9993","line2":"2 58908  49.9928 220.4709 0006157  59.3149 300.8402 14.97519644143978","mean_motion":14.97519644,"eccentricity":0.0006157,"inclination_deg":49.9928,"raan_deg":220.4709,"arg_perigee_deg":59.3149,"mean_anomaly_deg":300.8402,"bstar":0.00012826,"rev_number":14397,"period_min":96.15900571118,"perigee_km":570.2822026281,"apogee_km":578.84375738348,"semimajor_km":6952.6999800058,"source":"CELESTRAK","updated_at":"2026-09-23T09:00:19.070314Z"}}}